| time (UTC) | temp F | wind direction | speed knots | gust knots | rain 1hr in | rain 24hr in | rain mn in | humidity % | barometer mb |
| 20260507123103 | 56 | 124 | 5.2 | 10.4 | 0.00 | 0.00 | 0.00 | 28 | 1016.1 |
| 20260507122604 | 56 | 164 | 5.2 | 9.6 | 0.00 | 0.00 | 0.00 | 29 | 1016.0 |
| 20260507122329 | 56 | 111 | 7.0 | 9.6 | 0.00 | 0.00 | 0.00 | 27 | 1016.0 |
| 20260507121604 | 56 | 231 | 3.5 | 6.1 | 0.00 | 0.00 | 0.00 | 27 | 1016.0 |
| 20260507121259 | 57 | 190 | 3.5 | 6.1 | 0.00 | 0.00 | 0.00 | 28 | 1015.9 |
| 20260507120103 | 57 | 203 | 2.6 | 6.1 | 0.00 | 0.00 | 0.00 | 27 | 1016.0 |
| 20260507115824 | 57 | 279 | 2.6 | 4.3 | 0.00 | 0.00 | 0.00 | 27 | 1015.9 |
| 20260507115103 | 57 | 161 | 2.6 | 5.2 | 0.00 | 0.00 | 0.00 | 28 | 1016.0 |
| 20260507115041 | 57 | 165 | 3.5 | 5.2 | 0.00 | 0.00 | 0.00 | 27 | 1016.0 |
| 20260507114103 | 57 | 275 | 2.6 | 4.3 | 0.00 | 0.00 | 0.00 | 28 | 1015.9 |
| 20260507113603 | 56 | 255 | 1.7 | 8.7 | 0.00 | 0.00 | 0.00 | 29 | 1015.9 |
| 20260507113324 | 56 | 203 | 4.3 | 12.2 | 0.00 | 0.00 | 0.00 | 28 | 1015.9 |
| 20260507112604 | 55 | 111 | 6.1 | 12.2 | 0.00 | 0.00 | 0.00 | 29 | 1015.9 |
| 20260507112327 | 55 | 54 | 4.3 | 7.8 | 0.00 | 0.00 | 0.00 | 29 | 1015.9 |
| 20260507111603 | 54 | 137 | 2.6 | 10.4 | 0.00 | 0.00 | 0.00 | 29 | 1015.9 |
| 20260507111103 | 53 | 165 | 5.2 | 10.4 | 0.00 | 0.00 | 0.00 | 28 | 1016.0 |
| 20260507110604 | 54 | 110 | 7.0 | 9.6 | 0.00 | 0.00 | 0.00 | 28 | 1015.9 |
| 20260507110328 | 54 | 62 | 2.6 | 10.4 | 0.00 | 0.00 | 0.00 | 28 | 1015.8 |
| 20260507105603 | 54 | 149 | 5.2 | 10.4 | 0.00 | 0.00 | 0.00 | 27 | 1015.9 |
| 20260507105104 | 55 | 207 | 3.5 | 7.8 | 0.00 | 0.00 | 0.00 | 27 | 1015.8 |
| 20260507104829 | 55 | 141 | 2.6 | 7.8 | 0.00 | 0.00 | 0.00 | 28 | 1015.9 |
| 20260507104104 | 54 | 138 | 3.5 | 10.4 | 0.00 | 0.00 | 0.00 | 27 | 1015.8 |
| 20260507103603 | 54 | 179 | 4.3 | 10.4 | 0.00 | 0.00 | 0.00 | 28 | 1015.7 |
| 20260507103104 | 54 | 152 | 4.3 | 10.4 | 0.00 | 0.00 | 0.00 | 28 | 1015.7 |
| 20260507102603 | 53 | 203 | 3.5 | 10.4 | 0.00 | 0.00 | 0.00 | 27 | 1015.7 |
| 20260507102103 | 54 | 185 | 4.3 | 7.8 | 0.00 | 0.00 | 0.00 | 26 | 1015.7 |
| 20260507101603 | 54 | 148 | 4.3 | 8.7 | 0.00 | 0.00 | 0.00 | 28 | 1015.7 |
| 20260507101103 | 53 | 162 | 5.2 | 8.7 | 0.00 | 0.00 | 0.00 | 27 | 1015.7 |
| 20260507100823 | 53 | 128 | 3.5 | 9.6 | 0.00 | 0.00 | 0.00 | 27 | 1015.6 |
| 20260507100105 | 53 | 83 | 7.0 | 9.6 | 0.00 | 0.00 | 0.00 | 27 | 1015.7 |
| 20260507095824 | 53 | 137 | 4.3 | 10.4 | 0.00 | 0.00 | 0.00 | 27 | 1015.6 |
| 20260507095104 | 52 | 55 | 5.2 | 10.4 | 0.00 | 0.00 | 0.00 | 27 | 1015.5 |
| 20260507094830 | 53 | 80 | 3.5 | 8.7 | 0.00 | 0.00 | 0.00 | 28 | 1015.6 |
| 20260507094104 | 53 | 45 | 2.6 | 10.4 | 0.00 | 0.00 | 0.00 | 28 | 1015.5 |
| 20260507093604 | 53 | 141 | 5.2 | 11.3 | 0.00 | 0.00 | 0.00 | 29 | 1015.5 |
| 20260507093324 | 53 | 125 | 6.1 | 11.3 | 0.00 | 0.00 | 0.00 | 28 | 1015.5 |
| 20260507092604 | 52 | 154 | 4.3 | 9.6 | 0.00 | 0.00 | 0.00 | 29 | 1015.5 |
| 20260507092103 | 52 | 78 | 5.2 | 8.7 | 0.00 | 0.00 | 0.00 | 29 | 1015.5 |
| 20260507091820 | 52 | 110 | 5.2 | 8.7 | 0.00 | 0.00 | 0.00 | 28 | 1015.5 |
| 20260507091104 | 52 | 97 | 4.3 | 9.6 | 0.00 | 0.00 | 0.00 | 30 | 1015.4 |
| 20260507090604 | 52 | 90 | 6.1 | 9.6 | 0.00 | 0.00 | 0.00 | 28 | 1015.5 |
| 20260507090103 | 53 | 97 | 4.3 | 7.8 | 0.00 | 0.00 | 0.00 | 29 | 1015.4 |
| 20260507085604 | 52 | 73 | 2.6 | 10.4 | 0.00 | 0.00 | 0.00 | 29 | 1015.4 |
| 20260507085104 | 52 | 117 | 7.0 | 10.4 | 0.00 | 0.00 | 0.00 | 28 | 1015.3 |
| 20260507084604 | 52 | 127 | 1.7 | 8.7 | 0.00 | 0.00 | 0.00 | 29 | 1015.4 |
| 20260507084104 | 52 | 80 | 3.5 | 8.7 | 0.00 | 0.00 | 0.00 | 29 | 1015.4 |
| 20260507083604 | 52 | 180 | 3.5 | 7.8 | 0.00 | 0.00 | 0.00 | 29 | 1015.4 |
| 20260507083104 | 52 | 72 | 4.3 | 7.8 | 0.00 | 0.00 | 0.00 | 29 | 1015.4 |
| 20260507083049 | 53 | 99 | 1.7 | 3.5 | 0.00 | 0.00 | 0.00 | 29 | 1015.4 |
| 20260507082104 | 53 | 259 | 2.6 | 4.3 | 0.00 | 0.00 | 0.00 | 29 | 1015.3 |
| 20260507081603 | 53 | 196 | 2.6 | 4.3 | 0.00 | 0.00 | 0.00 | 27 | 1015.3 |
| 20260507081103 | 53 | 185 | 1.7 | 3.5 | 0.00 | 0.00 | 0.00 | 29 | 1015.3 |
| 20260507080604 | 52 | 172 | 2.6 | 5.2 | 0.00 | 0.00 | 0.00 | 29 | 1015.2 |
| 20260507080104 | 52 | 148 | 3.5 | 5.2 | 0.00 | 0.00 | 0.00 | 30 | 1015.3 |
| 20260507075604 | 52 | 121 | 2.6 | 5.2 | 0.00 | 0.00 | 0.00 | 32 | 1015.3 |
| 20260507075104 | 51 | 180 | 0.9 | 5.2 | 0.00 | 0.00 | 0.00 | 32 | 1015.3 |
| 20260507074603 | 51 | 173 | 3.5 | 5.2 | 0.00 | 0.00 | 0.00 | 32 | 1015.3 |
| 20260507074103 | 51 | 214 | 1.7 | 4.3 | 0.00 | 0.00 | 0.00 | 36 | 1015.1 |
| 20260507073603 | 51 | 289 | 0.9 | 3.5 | 0.00 | 0.00 | 0.00 | 35 | 1015.2 |
| 20260507073103 | 51 | 175 | 2.6 | 3.5 | 0.00 | 0.00 | 0.00 | 33 | 1015.2 |
| 20260507072603 | 51 | 266 | 2.6 | 3.5 | 0.00 | 0.00 | 0.00 | 35 | 1015.2 |
| 20260507072103 | 51 | 196 | 2.6 | 3.5 | 0.00 | 0.00 | 0.00 | 33 | 1015.2 |
| 20260507071604 | 51 | 200 | 1.7 | 5.2 | 0.00 | 0.00 | 0.00 | 34 | 1015.2 |
| 20260507071103 | 50 | 207 | 2.6 | 5.2 | 0.00 | 0.00 | 0.00 | 37 | 1015.3 |
| 20260507070603 | 49 | 207 | 2.6 | 4.3 | 0.00 | 0.00 | 0.00 | 37 | 1015.2 |
| 20260507065603 | 49 | 158 | 3.5 | 7.8 | 0.00 | 0.00 | 0.00 | 38 | 1015.3 |
| 20260507065104 | 49 | 134 | 3.5 | 7.8 | 0.00 | 0.00 | 0.00 | 37 | 1015.2 |
| 20260507064824 | 50 | 83 | 1.7 | 4.3 | 0.00 | 0.00 | 0.00 | 36 | 1015.2 |
| 20260507064104 | 49 | 128 | 1.7 | 4.3 | 0.00 | 0.00 | 0.00 | 40 | 1015.2 |
| 20260507063604 | 48 | 175 | 1.7 | 5.2 | 0.00 | 0.00 | 0.00 | 37 | 1015.2 |
| 20260507063104 | 48 | 149 | 3.5 | 6.1 | 0.00 | 0.00 | 0.00 | 36 | 1015.2 |
| 20260507062604 | 48 | 137 | 5.2 | 6.1 | 0.00 | 0.00 | 0.00 | 39 | 1015.2 |
| 20260507062104 | 48 | 121 | 0.9 | 4.3 | 0.00 | 0.00 | 0.00 | 44 | 1015.2 |
| 20260507061829 | 48 | 173 | 1.7 | 4.3 | 0.00 | 0.00 | 0.00 | 45 | 1015.1 |
| 20260507061103 | 47 | 195 | 2.6 | 5.2 | 0.00 | 0.00 | 0.00 | 46 | 1015.1 |
| 20260507060604 | 47 | 162 | 2.6 | 5.2 | 0.00 | 0.00 | 0.00 | 49 | 1015.1 |
| 20260507060103 | 46 | 135 | 1.7 | 6.1 | 0.00 | 0.00 | 0.00 | 52 | 1015.1 |
| 20260507055830 | 46 | 110 | 4.3 | 6.1 | 0.00 | 0.00 | 0.00 | 52 | 1015.1 |
| 20260507055103 | 46 | 161 | 2.6 | 4.3 | 0.00 | 0.00 | 0.00 | 54 | 1015.0 |
| 20260507055054 | 46 | 127 | 2.6 | 4.3 | 0.00 | 0.00 | 0.00 | 60 | 1014.9 |
| 20260507054104 | 45 | 217 | 1.7 | 4.3 | 0.00 | 0.00 | 0.00 | 62 | 1015.0 |
| 20260507053603 | 45 | 199 | 2.6 | 4.3 | 0.00 | 0.00 | 0.00 | 69 | 1015.0 |
| 20260507053102 | 44 | 124 | 1.7 | 3.5 | 0.00 | 0.00 | 0.00 | 72 | 1015.0 |
| 20260507052603 | 44 | 135 | 3.5 | 3.5 | 0.00 | 0.00 | 0.00 | 73 | 1014.9 |
| 20260507052325 | 44 | 175 | 1.7 | 3.5 | 0.00 | 0.00 | 0.00 | 75 | 1015.0 |
| 20260507051604 | 43 | 147 | 1.7 | 4.3 | 0.00 | 0.00 | 0.00 | 77 | 1014.9 |
| 20260507051324 | 42 | 125 | 3.5 | 5.2 | 0.00 | 0.00 | 0.00 | 78 | 1014.9 |
| 20260507050603 | 42 | 154 | 4.3 | 5.2 | 0.00 | 0.00 | 0.00 | 78 | 1014.8 |
| 20260507045602 | 42 | 148 | 4.3 | 5.2 | 0.00 | 0.00 | 0.00 | 80 | 1014.9 |
| 20260507045548 | 41 | 128 | 1.7 | 3.5 | 0.00 | 0.00 | 0.00 | 81 | 1014.8 |
| 20260507044603 | 41 | 62 | 2.6 | 3.5 | 0.00 | 0.00 | 0.00 | 81 | 1014.9 |
| 20260507044325 | 41 | 47 | 1.7 | 2.6 | 0.00 | 0.00 | 0.00 | 83 | 1014.9 |
| 20260507043604 | 40 | 47 | 1.7 | 1.7 | 0.00 | 0.00 | 0.00 | 84 | 1014.9 |
| 20260507043103 | 39 | 47 | 0.9 | 1.7 | 0.00 | 0.00 | 0.00 | 87 | 1014.9 |
| 20260507042604 | 38 | 47 | 0.0 | 1.7 | 0.00 | 0.00 | 0.00 | 89 | 1014.9 |
| 20260507042103 | 37 | 162 | 0.9 | 1.7 | 0.00 | 0.00 | 0.00 | 89 | 1014.9 |
| 20260507041604 | 36 | 162 | 1.7 | 1.7 | 0.00 | 0.00 | 0.00 | 90 | 1014.9 |
| 20260507041103 | 36 | 162 | 0.9 | 1.7 | 0.00 | 0.00 | 0.00 | 90 | 1014.9 |
| 20260507040603 | 35 | 162 | 0.9 | 1.7 | 0.00 | 0.00 | 0.00 | 91 | 1014.8 |
| 20260507040103 | 35 | 162 | 0.9 | 1.7 | 0.00 | 0.00 | 0.00 | 92 | 1014.8 |
| 20260507035603 | 34 | 162 | 0.9 | 1.7 | 0.00 | 0.00 | 0.00 | 92 | 1014.7 |
| 20260507035103 | 33 | 162 | 0.9 | 1.7 | 0.00 | 0.00 | 0.00 | 90 | 1014.7 |
| 20260507034603 | 32 | 162 | 1.7 | 1.7 | 0.00 | 0.00 | 0.00 | 90 | 1014.7 |
| 20260507034103 | 32 | 162 | 0.0 | 0.0 | 0.00 | 0.00 | 0.00 | 91 | 1014.7 |
| 20260507033832 | 32 | 162 | 0.0 | 0.9 | 0.00 | 0.00 | 0.00 | 91 | 1014.7 |
| 20260507033103 | 32 | 162 | 0.0 | 0.9 | 0.00 | 0.00 | 0.00 | 91 | 1014.7 |
| 20260507032604 | 31 | 162 | 0.0 | 1.7 | 0.00 | 0.00 | 0.00 | 91 | 1014.5 |
| 20260507032104 | 31 | 162 | 0.9 | 1.7 | 0.00 | 0.00 | 0.00 | 91 | 1014.6 |
| 20260507031605 | 31 | 162 | 0.9 | 0.9 | 0.00 | 0.00 | 0.00 | 91 | 1014.6 |
| 20260507031104 | 31 | 162 | 0.9 | 0.9 | 0.00 | 0.00 | 0.00 | 91 | 1014.5 |
| 20260507030604 | 31 | 162 | 0.9 | 0.9 | 0.00 | 0.00 | 0.00 | 91 | 1014.5 |
| 20260507030104 | 31 | 162 | 0.0 | 0.0 | 0.00 | 0.00 | 0.00 | 91 | 1014.4 |
| 20260507025604 | 31 | 162 | 0.0 | 0.0 | 0.00 | 0.00 | 0.00 | 91 | 1014.4 |
| 20260507025104 | 31 | 162 | 0.0 | 0.0 | 0.00 | 0.00 | 0.00 | 91 | 1014.4 |
| 20260507024603 | 30 | 162 | 0.0 | 0.0 | 0.00 | 0.00 | 0.00 | 90 | 1014.4 |
| 20260507024104 | 30 | 162 | 0.0 | 0.0 | 0.00 | 0.00 | 0.00 | 90 | 1014.4 |
| 20260507023826 | 31 | 162 | 0.0 | 0.0 | 0.00 | 0.00 | 0.00 | 90 | 1014.5 |
| 20260507023103 | 31 | 162 | 0.0 | 0.0 | 0.00 | 0.00 | 0.00 | 90 | 1014.5 |
| 20260507022603 | 31 | 162 | 0.0 | 0.0 | 0.00 | 0.00 | 0.00 | 90 | 1014.5 |
| 20260507022103 | 31 | 162 | 0.0 | 0.0 | 0.00 | 0.00 | 0.00 | 90 | 1014.4 |
| 20260507021604 | 31 | 162 | 0.0 | 0.0 | 0.00 | 0.00 | 0.00 | 90 | 1014.4 |
| 20260507021103 | 31 | 162 | 0.0 | 1.7 | 0.00 | 0.00 | 0.00 | 90 | 1014.4 |
| 20260507020603 | 31 | 162 | 0.0 | 1.7 | 0.00 | 0.00 | 0.00 | 90 | 1014.4 |
| 20260507020104 | 31 | 162 | 1.7 | 1.7 | 0.00 | 0.00 | 0.00 | 90 | 1014.4 |
| 20260507015602 | 31 | 162 | 0.0 | 0.0 | 0.00 | 0.00 | 0.00 | 89 | 1014.4 |
| 20260507015323 | 31 | 162 | 0.0 | 0.0 | 0.00 | 0.00 | 0.00 | 89 | 1014.3 |
| 20260507014603 | 31 | 162 | 0.0 | 0.0 | 0.00 | 0.00 | 0.00 | 88 | 1014.3 |
| 20260507014326 | 31 | 162 | 0.0 | 0.0 | 0.00 | 0.00 | 0.00 | 88 | 1014.3 |
| 20260507013603 | 31 | 162 | 0.0 | 0.0 | 0.00 | 0.00 | 0.00 | 88 | 1014.3 |
| 20260507013104 | 32 | 162 | 0.0 | 0.0 | 0.00 | 0.00 | 0.00 | 88 | 1014.3 |
| 20260507012604 | 32 | 162 | 0.0 | 0.0 | 0.00 | 0.00 | 0.00 | 88 | 1014.3 |
| 20260507012104 | 32 | 162 | 0.0 | 0.0 | 0.00 | 0.00 | 0.00 | 87 | 1014.2 |
| 20260507011604 | 32 | 162 | 0.0 | 0.0 | 0.00 | 0.00 | 0.00 | 87 | 1014.3 |
| 20260507011103 | 33 | 162 | 0.0 | 0.0 | 0.00 | 0.00 | 0.00 | 86 | 1014.2 |
| 20260507010604 | 33 | 162 | 0.0 | 0.0 | 0.00 | 0.00 | 0.00 | 85 | 1014.3 |
| 20260507010104 | 34 | 162 | 0.0 | 0.0 | 0.00 | 0.00 | 0.00 | 86 | 1014.2 |
| 20260507005604 | 34 | 162 | 0.0 | 1.7 | 0.00 | 0.00 | 0.00 | 86 | 1014.2 |
| 20260507005105 | 34 | 162 | 0.9 | 1.7 | 0.00 | 0.00 | 0.00 | 86 | 1014.1 |
| 20260507004603 | 34 | 162 | 1.7 | 1.7 | 0.00 | 0.00 | 0.00 | 85 | 1014.1 |
| 20260507004324 | 35 | 162 | 0.0 | 0.9 | 0.00 | 0.00 | 0.00 | 84 | 1014.2 |
| 20260507003604 | 35 | 162 | 0.0 | 0.9 | 0.00 | 0.00 | 0.00 | 85 | 1014.1 |
| 20260507003325 | 35 | 162 | 0.9 | 1.7 | 0.00 | 0.00 | 0.00 | 85 | 1014.1 |
| 20260507002829 | 35 | 162 | 0.9 | 1.7 | 0.00 | 0.00 | 0.00 | 84 | 1014.0 |
| 20260507002103 | 35 | 162 | 0.9 | 1.7 | 0.00 | 0.00 | 0.00 | 85 | 1014.0 |
| 20260507001604 | 35 | 162 | 0.9 | 1.7 | 0.00 | 0.00 | 0.00 | 85 | 1013.9 |
| 20260507001103 | 35 | 162 | 0.9 | 2.6 | 0.00 | 0.00 | 0.00 | 85 | 1013.8 |
| 20260507000603 | 35 | 162 | 1.7 | 2.6 | 0.00 | 0.00 | 0.00 | 86 | 1013.7 |
| 20260507000104 | 35 | 162 | 1.7 | 2.6 | 0.00 | 0.00 | 0.00 | 86 | 1013.7 |
| 20260506235603 | 35 | 162 | 1.7 | 2.6 | 0.00 | 0.00 | 0.00 | 87 | 1013.8 |
| 20260506235103 | 35 | 162 | 1.7 | 2.6 | 0.00 | 0.00 | 0.00 | 87 | 1013.8 |
| 20260506234604 | 34 | 162 | 1.7 | 2.6 | 0.00 | 0.00 | 0.00 | 87 | 1013.8 |
| 20260506234547 | 33 | 162 | 1.7 | 1.7 | 0.00 | 0.00 | 0.00 | 86 | 1013.8 |
| 20260506233603 | 33 | 162 | 0.9 | 1.7 | 0.00 | 0.00 | 0.00 | 85 | 1013.8 |
| 20260506233103 | 33 | 162 | 0.0 | 0.9 | 0.00 | 0.00 | 0.00 | 86 | 1014.0 |
| 20260506232603 | 34 | 162 | 0.9 | 0.9 | 0.00 | 0.00 | 0.00 | 85 | 1013.9 |
| 20260506232104 | 34 | 162 | 0.0 | 0.9 | 0.00 | 0.00 | 0.00 | 85 | 1013.9 |
| 20260506232041 | 34 | 162 | 0.0 | 1.7 | 0.00 | 0.00 | 0.00 | 85 | 1013.9 |
| 20260506231103 | 33 | 162 | 0.9 | 1.7 | 0.00 | 0.00 | 0.00 | 84 | 1013.9 |
| 20260506230603 | 34 | 162 | 0.0 | 1.7 | 0.00 | 0.00 | 0.00 | 83 | 1013.9 |
| 20260506230103 | 34 | 162 | 0.0 | 0.0 | 0.00 | 0.00 | 0.00 | 84 | 1013.9 |
| 20260506225603 | 34 | 162 | 0.0 | 0.0 | 0.00 | 0.00 | 0.00 | 83 | 1013.9 |
| 20260506225103 | 34 | 162 | 0.0 | 0.0 | 0.00 | 0.00 | 0.00 | 83 | 1013.9 |
| 20260506224826 | 34 | 162 | 0.0 | 0.0 | 0.00 | 0.00 | 0.00 | 82 | 1013.8 |
| 20260506224333 | 35 | 162 | 0.0 | 0.0 | 0.00 | 0.00 | 0.00 | 82 | 1013.9 |
| 20260506223604 | 35 | 162 | 0.0 | 0.0 | 0.00 | 0.00 | 0.00 | 82 | 1013.8 |
| 20260506223325 | 35 | 162 | 0.0 | 0.0 | 0.00 | 0.00 | 0.00 | 80 | 1013.8 |
| 20260506222604 | 35 | 162 | 0.0 | 0.0 | 0.00 | 0.00 | 0.00 | 80 | 1013.8 |
| 20260506222322 | 35 | 162 | 0.0 | 0.0 | 0.00 | 0.00 | 0.00 | 79 | 1013.8 |
| 20260506221604 | 36 | 162 | 0.0 | 0.0 | 0.00 | 0.00 | 0.00 | 79 | 1013.8 |
| 20260506221326 | 36 | 162 | 0.0 | 0.0 | 0.00 | 0.00 | 0.00 | 78 | 1013.9 |
| 20260506220604 | 36 | 162 | 0.0 | 0.9 | 0.00 | 0.00 | 0.00 | 78 | 1013.8 |
| 20260506220104 | 37 | 162 | 0.0 | 0.9 | 0.00 | 0.00 | 0.00 | 78 | 1013.8 |
| 20260506215603 | 37 | 162 | 0.9 | 1.7 | 0.00 | 0.00 | 0.00 | 78 | 1013.8 |
| 20260506215322 | 37 | 162 | 0.9 | 2.6 | 0.00 | 0.00 | 0.00 | 78 | 1013.7 |
| 20260506214604 | 37 | 162 | 1.7 | 2.6 | 0.00 | 0.00 | 0.00 | 77 | 1013.8 |
| 20260506214104 | 37 | 162 | 0.9 | 1.7 | 0.00 | 0.00 | 0.00 | 77 | 1013.8 |
| 20260506213603 | 37 | 162 | 0.9 | 1.7 | 0.00 | 0.00 | 0.00 | 76 | 1013.7 |
| 20260506213549 | 37 | 162 | 0.0 | 2.6 | 0.00 | 0.00 | 0.00 | 76 | 1013.7 |
| 20260506212803 | 37 | 162 | 0.9 | 2.6 | 0.00 | 0.00 | 0.00 | 76 | 1013.6 |
| 20260506212048 | 37 | 162 | 0.9 | 0.9 | 0.00 | 0.00 | 0.00 | 76 | 1013.7 |
| 20260506211103 | 37 | 162 | 0.9 | 1.7 | 0.00 | 0.00 | 0.00 | 75 | 1013.7 |
| 20260506210603 | 37 | 162 | 0.9 | 1.7 | 0.00 | 0.00 | 0.00 | 75 | 1013.8 |
| 20260506205602 | 37 | 162 | 1.7 | 2.6 | 0.00 | 0.00 | 0.00 | 74 | 1013.8 |
| 20260506205103 | 37 | 162 | 1.7 | 1.7 | 0.00 | 0.00 | 0.00 | 74 | 1013.8 |
| 20260506204603 | 37 | 162 | 1.7 | 1.7 | 0.00 | 0.00 | 0.00 | 72 | 1013.8 |
| 20260506204105 | 38 | 162 | 0.0 | 0.0 | 0.00 | 0.00 | 0.00 | 72 | 1013.7 |
| 20260506203605 | 38 | 162 | 0.0 | 0.0 | 0.00 | 0.00 | 0.00 | 72 | 1013.7 |
| 20260506203105 | 38 | 162 | 0.0 | 0.9 | 0.00 | 0.00 | 0.00 | 71 | 1013.7 |
| 20260506202605 | 38 | 162 | 0.0 | 1.7 | 0.00 | 0.00 | 0.00 | 71 | 1013.7 |
| 20260506202104 | 38 | 162 | 0.9 | 1.7 | 0.00 | 0.00 | 0.00 | 70 | 1013.8 |
| 20260506201605 | 38 | 162 | 0.9 | 1.7 | 0.00 | 0.00 | 0.00 | 70 | 1013.8 |
| 20260506201105 | 38 | 162 | 0.9 | 1.7 | 0.00 | 0.00 | 0.00 | 70 | 1013.8 |
| 20260506200605 | 38 | 162 | 0.9 | 1.7 | 0.00 | 0.00 | 0.00 | 69 | 1013.8 |
| 20260506200105 | 38 | 162 | 0.9 | 0.9 | 0.00 | 0.00 | 0.00 | 68 | 1013.7 |
| 20260506195605 | 39 | 162 | 0.9 | 0.9 | 0.00 | 0.00 | 0.00 | 67 | 1013.8 |
| 20260506195307 | 39 | 162 | 0.9 | 1.7 | 0.00 | 0.00 | 0.00 | 67 | 1013.8 |
| 20260506194105 | 40 | 162 | 1.7 | 1.7 | 0.00 | 0.00 | 0.00 | 66 | 1013.8 |
| 20260506193604 | 40 | 162 | 0.9 | 2.6 | 0.00 | 0.00 | 0.00 | 65 | 1013.9 |
| 20260506193105 | 40 | 162 | 0.9 | 2.6 | 0.00 | 0.00 | 0.00 | 65 | 1013.8 |
| 20260506192605 | 41 | 162 | 0.9 | 1.7 | 0.00 | 0.00 | 0.00 | 64 | 1013.9 |
| 20260506192104 | 41 | 162 | 0.0 | 1.7 | 0.00 | 0.00 | 0.00 | 63 | 1013.9 |
| 20260506191605 | 42 | 162 | 0.9 | 1.7 | 0.00 | 0.00 | 0.00 | 62 | 1013.9 |
| 20260506191105 | 42 | 162 | 0.9 | 1.7 | 0.00 | 0.00 | 0.00 | 61 | 1013.8 |
| 20260506190605 | 42 | 162 | 0.9 | 3.5 | 0.00 | 0.00 | 0.00 | 60 | 1013.9 |
| 20260506190517 | 42 | 162 | 2.6 | 3.5 | 0.00 | 0.00 | 0.00 | 60 | 1013.9 |
| 20260506185531 | 43 | 162 | 0.9 | 2.6 | 0.00 | 0.00 | 0.00 | 59 | 1013.9 |
| 20260506185030 | 43 | 162 | 1.7 | 2.6 | 0.00 | 0.00 | 0.00 | 59 | 1013.8 |
| 20260506184755 | 43 | 161 | 1.7 | 2.6 | 0.00 | 0.00 | 0.00 | 58 | 1013.9 |
| 20260506184030 | 44 | 161 | 1.7 | 2.6 | 0.00 | 0.00 | 0.00 | 57 | 1013.8 |
| 20260506183530 | 44 | 161 | 0.9 | 3.5 | 0.00 | 0.00 | 0.00 | 56 | 1013.8 |
| 20260506183030 | 44 | 154 | 1.7 | 5.2 | 0.00 | 0.00 | 0.00 | 55 | 1013.7 |
| 20260506182530 | 44 | 120 | 2.6 | 5.2 | 0.00 | 0.00 | 0.00 | 54 | 1013.8 |
| 20260506182250 | 45 | 148 | 1.7 | 3.5 | 0.00 | 0.00 | 0.00 | 54 | 1013.8 |
| 20260506181529 | 45 | 162 | 1.7 | 5.2 | 0.00 | 0.00 | 0.00 | 53 | 1013.7 |
| 20260506181029 | 45 | 166 | 3.5 | 5.2 | 0.00 | 0.00 | 0.00 | 52 | 1013.7 |
| 20260506180531 | 45 | 151 | 1.7 | 7.8 | 0.00 | 0.00 | 0.00 | 51 | 1013.6 |
| 20260506180030 | 45 | 142 | 5.2 | 7.8 | 0.00 | 0.00 | 0.00 | 50 | 1013.5 |
| 20260506175529 | 46 | 197 | 4.3 | 6.1 | 0.00 | 0.00 | 0.00 | 50 | 1013.6 |
| 20260506175029 | 46 | 125 | 4.3 | 6.1 | 0.00 | 0.00 | 0.00 | 49 | 1013.6 |
| 20260506174529 | 46 | 138 | 3.5 | 7.8 | 0.00 | 0.00 | 0.00 | 48 | 1013.6 |
| 20260506174029 | 46 | 125 | 4.3 | 7.8 | 0.00 | 0.00 | 0.00 | 47 | 1013.6 |
| 20260506173528 | 47 | 166 | 2.6 | 6.1 | 0.00 | 0.00 | 0.00 | 47 | 1013.6 |
| 20260506173028 | 47 | 164 | 3.5 | 6.1 | 0.00 | 0.00 | 0.00 | 47 | 1013.6 |
| 20260506172528 | 47 | 171 | 2.6 | 8.7 | 0.00 | 0.00 | 0.00 | 46 | 1013.5 |
| 20260506172028 | 47 | 200 | 6.1 | 8.7 | 0.00 | 0.00 | 0.00 | 45 | 1013.6 |
| 20260506172008 | 48 | 193 | 3.5 | 4.3 | 0.00 | 0.00 | 0.00 | 45 | 1013.6 |
| 20260506171028 | 48 | 135 | 2.6 | 4.3 | 0.00 | 0.00 | 0.00 | 45 | 1013.7 |
| 20260506170528 | 48 | 178 | 2.6 | 6.1 | 0.00 | 0.00 | 0.00 | 46 | 1013.7 |
| 20260506170029 | 48 | 197 | 4.3 | 6.1 | 0.00 | 0.00 | 0.00 | 46 | 1013.5 |
| 20260506165528 | 48 | 147 | 2.6 | 10.4 | 0.00 | 0.00 | 0.00 | 47 | 1013.5 |
| 20260506165028 | 48 | 202 | 4.3 | 10.4 | 0.00 | 0.00 | 0.00 | 47 | 1013.5 |
| 20260506164528 | 48 | 166 | 7.0 | 11.3 | 0.00 | 0.00 | 0.00 | 46 | 1013.5 |
| 20260506164514 | 49 | 162 | 5.2 | 11.3 | 0.00 | 0.00 | 0.00 | 45 | 1013.5 |
| 20260506163527 | 49 | 162 | 3.5 | 10.4 | 0.00 | 0.00 | 0.00 | 46 | 1013.5 |
| 20260506163027 | 49 | 172 | 7.8 | 10.4 | 0.00 | 0.00 | 0.00 | 45 | 1013.4 |
| 20260506162527 | 50 | 169 | 1.7 | 7.8 | 0.00 | 0.00 | 0.00 | 44 | 1013.4 |
| 20260506162247 | 50 | 195 | 4.3 | 7.8 | 0.00 | 0.00 | 0.00 | 43 | 1013.3 |
| 20260506161527 | 51 | 264 | 1.7 | 5.2 | 0.00 | 0.00 | 0.00 | 45 | 1013.3 |
| 20260506161248 | 51 | 151 | 1.7 | 6.1 | 0.00 | 0.00 | 0.00 | 45 | 1013.3 |
| 20260506160526 | 50 | 175 | 3.5 | 8.7 | 0.00 | 0.00 | 0.00 | 45 | 1013.3 |
| 20260506160027 | 49 | 130 | 3.5 | 9.6 | 0.00 | 0.00 | 0.00 | 48 | 1013.4 |
| 20260506155526 | 49 | 164 | 3.5 | 12.2 | 0.00 | 0.00 | 0.00 | 46 | 1013.3 |
| 20260506155026 | 50 | 133 | 5.2 | 12.2 | 0.00 | 0.00 | 0.00 | 46 | 1013.3 |
| 20260506154526 | 50 | 300 | 1.7 | 7.8 | 0.00 | 0.00 | 0.00 | 49 | 1013.3 |
| 20260506154026 | 50 | 158 | 4.3 | 10.4 | 0.00 | 0.00 | 0.00 | 48 | 1013.3 |
| 20260506153526 | 50 | 161 | 4.3 | 10.4 | 0.00 | 0.00 | 0.00 | 45 | 1013.3 |
| 20260506153026 | 50 | 227 | 3.5 | 7.8 | 0.00 | 0.00 | 0.00 | 43 | 1013.4 |
| 20260506152527 | 51 | 196 | 4.3 | 9.6 | 0.00 | 0.00 | 0.00 | 40 | 1013.4 |
| 20260506152249 | 51 | 245 | 3.5 | 9.6 | 0.00 | 0.00 | 0.00 | 40 | 1013.4 |
| 20260506151525 | 52 | 206 | 2.6 | 5.2 | 0.00 | 0.00 | 0.00 | 42 | 1013.3 |
| 20260506151025 | 52 | 178 | 2.6 | 5.2 | 0.00 | 0.00 | 0.00 | 38 | 1013.4 |
| 20260506151013 | 51 | 192 | 1.7 | 10.4 | 0.00 | 0.00 | 0.00 | 40 | 1013.3 |
| 20260506150026 | 51 | 149 | 6.1 | 10.4 | 0.00 | 0.00 | 0.00 | 40 | 1013.3 |
| 20260506145525 | 51 | 161 | 1.7 | 9.6 | 0.00 | 0.00 | 0.00 | 39 | 1013.3 |
| 20260506145244 | 51 | 178 | 7.0 | 10.4 | 0.00 | 0.00 | 0.00 | 38 | 1013.2 |
| 20260506144525 | 51 | 173 | 4.3 | 11.3 | 0.00 | 0.00 | 0.00 | 37 | 1013.4 |
| 20260506144025 | 51 | 124 | 6.1 | 11.3 | 0.00 | 0.00 | 0.00 | 34 | 1013.4 |
| 20260506143524 | 51 | 206 | 3.5 | 7.8 | 0.00 | 0.00 | 0.00 | 35 | 1013.4 |
| 20260506143025 | 52 | 183 | 4.3 | 9.6 | 0.00 | 0.00 | 0.00 | 37 | 1013.5 |
| 20260506142525 | 51 | 176 | 2.6 | 13.0 | 0.00 | 0.00 | 0.00 | 38 | 1013.4 |
| 20260506142253 | 51 | 171 | 7.0 | 13.0 | 0.00 | 0.00 | 0.00 | 35 | 1013.4 |
| 20260506141524 | 51 | 131 | 8.7 | 13.0 | 0.00 | 0.00 | 0.00 | 35 | 1013.4 |
| 20260506141025 | 52 | 127 | 7.0 | 12.2 | 0.00 | 0.00 | 0.00 | 34 | 1013.4 |
| 20260506140524 | 51 | 134 | 2.6 | 7.8 | 0.00 | 0.00 | 0.00 | 36 | 1013.4 |
| 20260506140026 | 51 | 175 | 3.5 | 11.3 | 0.00 | 0.00 | 0.00 | 35 | 1013.3 |
| 20260506135524 | 51 | 183 | 6.1 | 11.3 | 0.00 | 0.00 | 0.00 | 35 | 1013.3 |
| 20260506135024 | 51 | 125 | 7.0 | 13.0 | 0.00 | 0.00 | 0.00 | 36 | 1013.4 |
| 20260506134524 | 52 | 144 | 6.1 | 13.0 | 0.00 | 0.00 | 0.00 | 35 | 1013.3 |
| 20260506134024 | 52 | 166 | 2.6 | 9.6 | 0.00 | 0.00 | 0.00 | 37 | 1013.3 |
| 20260506133745 | 51 | 176 | 3.5 | 9.6 | 0.00 | 0.00 | 0.00 | 38 | 1013.3 |
| 20260506133024 | 51 | 148 | 7.0 | 9.6 | 0.00 | 0.00 | 0.00 | 38 | 1013.3 |
| 20260506132523 | 52 | 134 | 5.2 | 13.0 | 0.00 | 0.00 | 0.00 | 39 | 1013.3 |
| 20260506132245 | 51 | 169 | 6.1 | 13.9 | 0.00 | 0.00 | 0.00 | 38 | 1013.4 |
| 20260506131747 | 51 | 202 | 7.8 | 13.9 | 0.00 | 0.00 | 0.00 | 39 | 1013.4 |
| 20260506131023 | 51 | 166 | 5.2 | 11.3 | 0.00 | 0.00 | 0.00 | 39 | 1013.4 |
| 20260506130523 | 51 | 162 | 7.8 | 13.0 | 0.00 | 0.00 | 0.00 | 37 | 1013.4 |
| 20260506130024 | 52 | 116 | 9.6 | 13.0 | 0.00 | 0.00 | 0.00 | 38 | 1013.3 |
| 20260506125523 | 51 | 141 | 6.1 | 15.6 | 0.00 | 0.00 | 0.00 | 39 | 1013.3 |
| 20260506125023 | 51 | 148 | 6.1 | 15.6 | 0.00 | 0.00 | 0.00 | 38 | 1013.3 |
| 20260506124522 | 51 | 175 | 6.1 | 13.9 | 0.00 | 0.00 | 0.00 | 38 | 1013.4 |
| 20260506124023 | 52 | 130 | 7.0 | 13.9 | 0.00 | 0.00 | 0.00 | 38 | 1013.3 |
| 20260506123742 | 53 | 200 | 4.3 | 10.4 | 0.00 | 0.00 | 0.00 | 39 | 1013.3 |